Regional Weather Roundup
Issued by NWS Memphis, TN

Home | Current Version | Previous Version | Text Only | Print | Product List | Glossary On
Versions: 1 2 3 4 5 6 7 8 9 10 11 12 13 14 15 16 17 18 19 20 21 22 23 24 25 26 27 28 29 30 31 32 33 34 35 36 37 38 39 40 41 42 43 44 45 46 47 48 49 50
972
ASUS44 KMEG 080410
RWRMEG
MEMPHIS CWA HOURLY WEATHER ROUNDUP
NATIONAL WEATHER SERVICE MEMPHIS TN
1000 PM CST WED DEC 07 2016

...WEST TENNESSEE...

CITY           SKY/WX    TMP DP  RH WIND       PRES   REMARKS
MEMPHIS INTL   CLOUDY    42  31  64 N10       30.26R
NWS MEMPHIS      N/A     41 N/A N/A MISG        N/A
JACKSON        CLOUDY    41  29  62 N7        30.25R
BOLIVAR        CLOUDY    41  32  70 NW5       30.24R
LEXINGTON      CLOUDY    39  27  60 N6        30.21R WCI  35
DYERSBURG      CLOUDY    39  25  56 N8        30.28R WCI  34
UNION CITY     CLOUDY    37  25  60 N10       30.27R WCI  30
PARIS          CLOUDY    36  25  64 VRB6      30.25R WCI  31
HUNTINGDON     CLOUDY    41  27  56 N6        30.24R


...EASTERN ARKANSAS...

CITY           SKY/WX    TMP DP  RH WIND       PRES   REMARKS
JONESBORO      CLOUDY    41  25  53 N8        30.31R
WEST MEMPHIS   CLOUDY    41  30  65 N8        30.27R
BATESVILLE     CLOUDY    39  19  45 NW3       30.33R
WALNUT RIDGE   CLOUDY    39  21  48 N12       30.32R WCI  32
BLYTHEVILLE    CLOUDY    39  28  64 N15       30.31R WCI  31
SEARCY         CLOUDY    40  23  50 N7        30.34R
STUTTGART      CLOUDY    41  28  60 N9        30.31R
PINE BLUFF     CLOUDY    41  33  73 N14G20    30.30R
MONTICELLO     CLOUDY    44  38  79 N7        30.27R


...NORTH MISSISSIPPI...

CITY           SKY/WX    TMP DP  RH WIND       PRES   REMARKS
TUPELO         CLOUDY    44  36  73 NW5       30.23R
OXFORD         CLOUDY    39  34  81 N5        30.27R
BATESVILLE     CLOUDY    43  35  75 N5        30.27R
TUNICA         CLOUDY    41  34  75 N8        30.29R
CLARKSDALE     CLOUDY    45  37  76 N12       30.28R
CORINTH        CLOUDY    41  34  75 NW5       30.22R
GREENWOOD      CLOUDY    45  39  79 N3        30.24R
COLUMBUS       CLOUDY    44  38  80 CALM      30.21S
STARKVILLE     CLOUDY    43  41  93 CALM      30.23S
GOLDEN TRIANGL CLOUDY    43  37  81 N6        30.17F


...SOUTHEAST MISSOURI...

CITY           SKY/WX    TMP DP  RH WIND       PRES   REMARKS
KENNETT        CLOUDY    39  27  60 N8G14     30.30R WCI  34
WEST PLAINS    CLOUDY    32  22  66 N6        30.34R WCI  26
POPLAR BLUFF   CLOUDY    38  22  52 N8        30.32R WCI  32
CAPE GIRARDEAU CLOUDY    36  23  59 NW7       30.31R WCI  30


...NORTHWEST ALABAMA...

CITY           SKY/WX    TMP DP  RH WIND       PRES   REMARKS
MUSCLE SHOALS  CLOUDY    43  35  73 NW5       30.21S


...MIDDLE TENNESSEE...

CITY           SKY/WX    TMP DP  RH WIND       PRES   REMARKS
NASHVILLE      CLOUDY    40  25  55 N9        30.21S WCI  34
CLARKSVILLE    MOCLDY    38  25  59 N12       30.24R WCI  30
COLUMBIA       CLOUDY    37  37 100 CALM      30.19R


...WESTERN KENTUCKY...

CITY           SKY/WX    TMP DP  RH WIND       PRES   REMARKS
PADUCAH        CLOUDY    37  21  52 N9        30.28R WCI  30
FORT CAMPBELL  PTCLDY    37  22  53 N6        30.24R WCI  33


...CENTRAL ARKANSAS...

CITY           SKY/WX    TMP DP  RH WIND       PRES   REMARKS
LITTLE ROCK    CLOUDY    38  30  73 N13       30.33R WCI  30


SKY/WX REPORTED AS FAIR MEANS FEW OR NO CLOUDS BELOW
12 THOUSAND FEET.





USA.gov is the U.S. government's official web portal to all federal, state and local government web resources and services.